When you browse on this site, cookies collect data to enhance your experience and personalize the content and advertising you see.
Visit our Privacy Policy to learn more. By continuing to use the site, you agree to this use of cookies and data.
  • In Deutschland
  • Länderverzeichnis
  • Für 7 Tage
  • Wassertemperatur
  • Wetterkarte
  • Widgets
  • user-avatar
    Anmelden

    Stündliche Wetter Uige

    Heute, 22 August, Donnerstag

    Zeit Temperatur Niederschläge Wind Luftdruck Luftfeuchtigkeit
    00:00 +22°C° 0 mm 1 m/S 693 mmHg 78%
    01:00 +21°C° 0 mm 1 m/S 693 mmHg 81%
    02:00 +20°C° 0 mm 1 m/S 693 mmHg 85%
    03:00 +20°C° 0 mm 1 m/S 692 mmHg 88%
    04:00 +19°C° 0 mm 1 m/S 692 mmHg 92%
    05:00 +20°C° 0 mm 1 m/S 692 mmHg 88%
    06:00 +20°C° 0 mm 1 m/S 693 mmHg 85%
    07:00 +21°C° 0 mm 1 m/S 693 mmHg 82%
    08:00 +25°C° 0 mm 1 m/S 694 mmHg 65%
    09:00 +28°C° 0 mm 1 m/S 695 mmHg 48%
    10:00 +32°C° 0 mm 1 m/S 695 mmHg 32%
    11:00 +34°C° 0 mm 1 m/S 694 mmHg 26%
    12:00 +36°C° 0 mm 1 m/S 694 mmHg 20%
    13:00 +39°C° 0 mm 2 m/S 694 mmHg 15%
    14:00 +38°C° 0 mm 2 m/S 693 mmHg 15%
    15:00 +37°C° 0 mm 1 m/S 692 mmHg 14%
    16:00 +36°C° 0 mm 1 m/S 691 mmHg 14%
    17:00 +34°C° 0 mm 1 m/S 691 mmHg 17%
    18:00 +31°C° 0 mm 1 m/S 691 mmHg 21%
    19:00 +28°C° 0 mm 1 m/S 691 mmHg 24%
    20:00 +27°C° 0 mm 1 m/S 692 mmHg 36%
    21:00 +25°C° 0 mm 1 m/S 692 mmHg 47%
    22:00 +23°C° 0 mm 1 m/S 693 mmHg 58%
    23:00 +22°C° 0 mm 1 m/S 693 mmHg 66%

    Morgen, 23 August, Freitag

    Zeit Temperatur Niederschläge Wind Luftdruck Luftfeuchtigkeit
    00:00 +22°C° 0 mm 1 m/S 693 mmHg 74%
    01:00 +21°C° 0 mm 1 m/S 692 mmHg 82%
    02:00 +20°C° 0 mm 1 m/S 692 mmHg 86%
    03:00 +20°C° 0 mm 1 m/S 692 mmHg 89%
    04:00 +19°C° 0 mm 1 m/S 691 mmHg 93%
    05:00 +20°C° 0 mm 1 m/S 692 mmHg 87%
    06:00 +18°C° 0 mm 0 m/S 693 mmHg 81%
    07:00 +19°C° 0 mm 0 m/S 694 mmHg 74%
    08:00 +25°C° 0 mm 1 m/S 694 mmHg 58%
    09:00 +29°C° 0 mm 1 m/S 695 mmHg 41%
    10:00 +33°C° 0 mm 1 m/S 695 mmHg 24%
    11:00 +36°C° 0 mm 2 m/S 694 mmHg 20%
    12:00 +37°C° 0 mm 2 m/S 694 mmHg 17%
    13:00 +39°C° 0 mm 2 m/S 693 mmHg 14%
    14:00 +38°C° 0 mm 2 m/S 692 mmHg 14%
    15:00 +38°C° 0 mm 2 m/S 692 mmHg 14%
    16:00 +37°C° 0 mm 1 m/S 691 mmHg 14%
    17:00 +34°C° 0 mm 1 m/S 691 mmHg 18%
    18:00 +31°C° 0 mm 1 m/S 691 mmHg 22%
    19:00 +28°C° 0 mm 2 m/S 691 mmHg 25%
    20:00 +26°C° 0 mm 1 m/S 692 mmHg 36%
    21:00 +25°C° 0 mm 1 m/S 692 mmHg 47%
    22:00 +23°C° 0 mm 1 m/S 693 mmHg 58%
    23:00 +22°C° 0 mm 1 m/S 692 mmHg 64%

    übermorgen, 24 August, Samstag

    Zeit Temperatur Niederschläge Wind Luftdruck Luftfeuchtigkeit
    00:00 +21°C° 0 mm 1 m/S 692 mmHg 71%
    01:00 +20°C° 0 mm 1 m/S 692 mmHg 78%
    02:00 +19°C° 0 mm 1 m/S 692 mmHg 83%
    03:00 +18°C° 0 mm 1 m/S 692 mmHg 88%
    04:00 +18°C° 0 mm 1 m/S 691 mmHg 93%
    05:00 +18°C° 0 mm 1 m/S 692 mmHg 90%
    06:00 +17°C° 0 mm 0 m/S 693 mmHg 87%
    07:00 +17°C° 0 mm 0 m/S 693 mmHg 85%
    08:00 +23°C° 0 mm 1 m/S 694 mmHg 70%
    09:00 +26°C° 0 mm 1 m/S 695 mmHg 54%
    10:00 +30°C° 0 mm 1 m/S 695 mmHg 39%
    11:00 +32°C° 0 mm 1 m/S 694 mmHg 33%
    12:00 +34°C° 0 mm 1 m/S 694 mmHg 27%
    13:00 +37°C° 0 mm 1 m/S 693 mmHg 21%
    14:00 +36°C° 0 mm 1 m/S 692 mmHg 20%
    15:00 +36°C° 0 mm 1 m/S 691 mmHg 19%
    16:00 +36°C° 0 mm 2 m/S 691 mmHg 19%
    17:00 +34°C° 0 mm 2 m/S 691 mmHg 25%
    18:00 +30°C° 0 mm 2 m/S 691 mmHg 31%
    19:00 +27°C° 0 mm 2 m/S 691 mmHg 38%
    20:00 +26°C° 0 mm 2 m/S 692 mmHg 45%
    21:00 +24°C° 0 mm 1 m/S 692 mmHg 53%
    22:00 +22°C° 0 mm 1 m/S 692 mmHg 60%
    23:00 +21°C° 0 mm 1 m/S 692 mmHg 67%

    25 August, Sonntag

    Zeit Temperatur Niederschläge Wind Luftdruck Luftfeuchtigkeit
    00:00 +20°C° 0 mm 1 m/S 692 mmHg 73%
    01:00 +19°C° 0 mm 1 m/S 692 mmHg 80%
    02:00 +19°C° 0 mm 1 m/S 692 mmHg 83%
    03:00 +18°C° 0 mm 1 m/S 691 mmHg 87%
    04:00 +16°C° 0 mm 1 m/S 691 mmHg 91%
    05:00 +18°C° 0 mm 1 m/S 691 mmHg 88%
    06:00 +16°C° 0 mm 0 m/S 692 mmHg 86%
    07:00 +17°C° 0 mm 0 m/S 693 mmHg 83%
    08:00 +23°C° 0 mm 1 m/S 693 mmHg 68%
    09:00 +26°C° 0 mm 1 m/S 694 mmHg 52%
    10:00 +30°C° 0 mm 2 m/S 694 mmHg 37%
    11:00 +32°C° 0 mm 2 m/S 694 mmHg 32%
    12:00 +34°C° 0 mm 2 m/S 693 mmHg 28%
    13:00 +36°C° 0 mm 2 m/S 692 mmHg 23%
    14:00 +36°C° 0 mm 2 m/S 692 mmHg 23%
    15:00 +35°C° 0 mm 2 m/S 691 mmHg 23%
    16:00 +35°C° 0 mm 2 m/S 690 mmHg 23%
    17:00 +32°C° 0 mm 2 m/S 691 mmHg 27%
    18:00 +29°C° 0 mm 2 m/S 691 mmHg 31%
    19:00 +27°C° 0 mm 2 m/S 691 mmHg 35%
    20:00 +25°C° 0 mm 2 m/S 691 mmHg 44%
    21:00 +24°C° 0 mm 1 m/S 692 mmHg 53%
    22:00 +22°C° 0 mm 1 m/S 692 mmHg 62%
    23:00 +21°C° 0 mm 1 m/S 692 mmHg 68%

    26 August, Montag

    Zeit Temperatur Niederschläge Wind Luftdruck Luftfeuchtigkeit
    00:00 +20°C° 0 mm 1 m/S 692 mmHg 74%
    01:00 +19°C° 0 mm 1 m/S 692 mmHg 81%
    02:00 +19°C° 0 mm 1 m/S 692 mmHg 84%
    03:00 +18°C° 0 mm 1 m/S 692 mmHg 87%
    04:00 +16°C° 0 mm 0 m/S 692 mmHg 91%
    05:00 +18°C° 0 mm 1 m/S 692 mmHg 88%
    06:00 +18°C° 0 mm 1 m/S 693 mmHg 85%
    07:00 +19°C° 0 mm 1 m/S 693 mmHg 82%
    08:00 +20°C° 0 mm 2 m/S 694 mmHg 67%
    09:00 +24°C° 0 mm 2 m/S 694 mmHg 51%
    10:00 +27°C° 0 mm 3 m/S 695 mmHg 36%
    11:00 +29°C° 0 mm 2 m/S 694 mmHg 33%
    12:00 +30°C° 0 mm 2 m/S 694 mmHg 29%
    13:00 +32°C° 0 mm 2 m/S 693 mmHg 26%
    14:00 +32°C° 0 mm 2 m/S 693 mmHg 26%
    15:00 +32°C° 0 mm 2 m/S 692 mmHg 26%
    16:00 +32°C° 0 mm 2 m/S 692 mmHg 26%
    17:00 +30°C° 0 mm 2 m/S 692 mmHg 30%
    18:00 +28°C° 0 mm 2 m/S 692 mmHg 35%
    19:00 +25°C° 0 mm 2 m/S 692 mmHg 39%
    20:00 +24°C° 0 mm 1 m/S 692 mmHg 43%
    21:00 +23°C° 0 mm 1 m/S 693 mmHg 47%
    22:00 +22°C° 0 mm 1 m/S 693 mmHg 51%
    23:00 +21°C° 0 mm 1 m/S 693 mmHg 55%

    27 August, Dienstag

    Zeit Temperatur Niederschläge Wind Luftdruck Luftfeuchtigkeit
    00:00 +20°C° 0 mm 1 m/S 693 mmHg 58%
    01:00 +17°C° 0 mm 0 m/S 692 mmHg 62%
    02:00 +19°C° 0 mm 1 m/S 692 mmHg 65%
    03:00 +18°C° 0 mm 1 m/S 692 mmHg 68%
    04:00 +18°C° 0 mm 1 m/S 692 mmHg 72%
    05:00 +18°C° 0 mm 1 m/S 693 mmHg 70%
    06:00 +18°C° 0 mm 1 m/S 693 mmHg 68%
    07:00 +19°C° 0 mm 1 m/S 694 mmHg 67%
    08:00 +23°C° 0 mm 1 m/S 694 mmHg 53%
    09:00 +27°C° 0 mm 1 m/S 695 mmHg 39%
    10:00 +31°C° 0 mm 1 m/S 696 mmHg 25%
    11:00 +32°C° 0 mm 1 m/S 695 mmHg 23%
    12:00 +35°C° 0 mm 2 m/S 694 mmHg 21%
    13:00 +36°C° 0 mm 2 m/S 693 mmHg 19%
    14:00 +36°C° 0 mm 2 m/S 693 mmHg 20%
    15:00 +36°C° 0 mm 2 m/S 692 mmHg 20%
    16:00 +35°C° 0 mm 2 m/S 692 mmHg 20%
    17:00 +32°C° 0 mm 2 m/S 692 mmHg 24%
    18:00 +29°C° 0 mm 2 m/S 692 mmHg 27%
    19:00 +27°C° 0 mm 2 m/S 692 mmHg 31%
    20:00 +25°C° 0 mm 2 m/S 692 mmHg 37%
    21:00 +24°C° 0 mm 1 m/S 692 mmHg 43%
    22:00 +22°C° 0 mm 1 m/S 692 mmHg 49%
    23:00 +21°C° 0 mm 1 m/S 692 mmHg 53%
    Mehr zeigen